Location: Newark
(45.4422°N, 16.2769°E)
Time: 12:45:45
(UTC+00:00)

Vanguard 2 - Pass Details

Date: 09 December 2019
Orbit: 553 x 2938 km, 32.9° (Epoch: 25 January)

Event Time Altitude Azimuth Distance (km) Brightness Sun altitude
Rises 03:24:39 0° 258° (WSW) 6,587 - -30.2°
Reaches altitude 10° 03:29:01 10° 255° (WSW) 5,695 - -29.5°
Exits shadow 03:36:26 30° 242° (WSW) 4,307 10.8 -28.2°
Maximum altitude 03:45:55 52° 186° (S) 3,278 10.6 -26.5°
Drops below altitude 10° 04:00:00 10° 116° (ESE) 4,821 12.6 -24.1°
Sets 04:03:21 0° 111° (ESE) 5,553 13.3 -23.5°
